COSMOS 1275 DEB, 12963

Orbit data source: Space-Track

COSMOS 1275 DEB, 12963 is space debris in LEO originally from a launch on Thu, 04 Jun 1981 UTC launched from the Plesetsk Missile And Space Complex (PKMTR). Debris objects in space refer to the collection of defunct objects orbiting the Earth. Examples of debris include non-operational satellites, rocket bodies, and fragments generated from explosions, collisions, or faulty payload assembly.

Loading next visibility...
Identifier
12963, 1981-053EJ
Orbit
LEO
Country
Flag of CISCIS
Related business
Manufacturer
Unknown
Mission
Spacecraft
Bus & Motor
Unknown
Mass
Unknown
Launch date (UTC)
1981-06-04 (45 years ago)
Launch vehicle
Unknown
Launch site
Plesetsk Missile And Space Complex (PKMTR)
Object type
Payload
Rocket body
Debris
Shape & HBR
Unknown shape, 0.1 m
Radar Cross Section
Small (<0.1 m²)

Expand to show TLE details & history
Last TLE update: 22 hours ago

TLE from 22 hours ago
0 COSMOS 1275 DEB
1 12963U 81053EJ  25348.93852638  .00000526  00000-0  46525-3 0  9992
2 12963  82.9448 310.9540 0025301  23.0450  40.4346 13.83166463220382
Epoch: 2025-12-14T22:31Z
TLE epoch observation values (Epoch: 2025-12-14T22:31:28.679Z)
Latitude
62.89445°
Longitude
-96.84169°
Altitude
949.384 km
Speed
7.39 km/s
True Right ascension
21h 39m 29s
True Declination
62° 45' 30"
Sunlit
Object was in daylight at epoch
Visualization orbit readout
Latitude
Unknown
Longitude
Unknown
Altitude
Unknown
Speed
Unknown
Apparent Right ascension
Unknown
Apparent Declination
Unknown
Sunlit
N/A
Visualization observer readout
Local Sidereal Time
18:56:18
Azimuth
Unknown
Elevation
Unknown
Doppler factor
Unknown
Orbital elements
Apogee altitude
968.355 km
Perigee altitude
931.274 km
Semi-major axis
7,327.952 km
Eccentricity
0.00253
Inclination
82.9448°
RAAN
310.954°
Arg. of periapsis
23.045°
True anomaly
40.62309°
Mean anomaly
40.4346°
Eccentric anomaly
40.5288°
Mean motion
3.45995 °/min
Orbital period
104.05 mins
BSTAR
0.00046525
Loading maneuver chart data...
Computing Atmospheric mass density...
Loading historical data...
Loading historical data...
Loading historical data...
Loading historical data...
Loading historical data...
Loading historical data...
Loading historical data...

Documentation

Showing up to 5 results
|